#timestamp,LO_Frequency,Hit,StdDev 
1617145215.4,286016729.5,N
1617145235.3,286016731.7,N
1617145255.1,286016729.2,N
1617145275.9,286016731.9,N
1617145295.7,286016730.9,N
1617145315.5,286016731.3,Y
1617145335.4,286047001.0,P
1617145355.2,286047001.0,N
1617145375.0,286046998.5,N
1617145375.9,286046998.5,N
1617145395.8,286047000.6,N
1617145415.6,286047000.6,N
1617145435.5,286047000.3,N
1617145455.3,286046998.5,N
1617145475.1,286046998.1,N
1617145495.9,286047000.9,N
1617145515.7,286046999.9,N
1617145535.5,286047000.3,N
1617145555.4,286046999.8,N
1617145575.2,286046999.8,N
1617145595.1,286047000.6,N
1617145596.0,286047000.6,N
1617145615.8,286047000.3,N
1617145635.6,286047002.7,N
1617145655.5,286046999.8,N
1617145675.3,286047002.3,N
1617145695.1,286047002.4,N
1617145715.9,286047002.8,N
1617145735.7,286047000.2,N
1617145755.6,286047000.8,N
1617145775.4,286047000.4,N
1617145795.2,286046999.8,N
1617145815.1,286047002.7,N
1617145816.0,286047002.7,N
1617145835.8,286046999.7,N
1617145855.7,286047000.2,N
1617145875.5,286047000.2,N
1617145895.3,286046999.8,N
1617145915.2,286047002.7,N
1617145935.9,286046999.7,N
1617145955.7,286047002.4,N
1617145975.6,286047002.7,N
1617145995.4,286046999.7,N
1617146015.3,286047002.4,N
1617146035.1,286046999.7,N
1617146036.0,286046999.7,N
1617146055.8,286047002.7,N
1617146075.7,286047002.7,N
1617146095.5,286047002.7,N
1617146115.3,286046999.8,N
1617146135.2,286047002.8,N
1617146155.0,286047002.8,N
1617146155.9,286047002.8,N
1617146175.8,286047002.8,N
1617146195.6,286047000.1,N
1617146215.4,286046999.7,N
1617146235.3,286047002.3,N
1617146255.1,286046999.8,N
1617146275.8,286047002.6,N
1617146295.7,286047002.7,N
1617146315.5,286047002.8,N
1617146335.4,286047000.1,N
1617146355.2,286047000.1,N
1617146375.0,286046999.7,N
1617146375.9,286046999.7,N
1617146395.8,286046999.9,N
1617146415.6,286047000.3,N
1617146435.4,286047000.5,N
1617146455.3,286047000.8,N
1617146475.1,286047000.9,N
1617146495.9,286047000.8,N
1617146515.7,286047001.2,N
1617146535.5,286047000.5,N
1617146555.4,286047000.6,N
1617146575.2,286046998.1,N
1617146595.0,286046998.1,N
1617146596.0,286046998.1,N
1617146615.8,286047000.9,N
1617146635.6,286047000.9,N
1617146655.5,286047000.7,N
1617146675.3,286047000.5,N
1617146695.1,286047000.3,N
1617146715.9,286047000.7,N
1617146735.7,286047000.5,N
1617146755.6,286047000.4,N
1617146775.4,286047001.0,N
1617146795.2,286046998.2,N
1617146815.1,286047001.0,N
1617146816.0,286047001.0,N
1617146835.8,286046998.1,N
1617146855.6,286047000.9,N
1617146875.5,286047000.6,N
1617146895.3,286047000.6,N
1617146915.2,286046998.6,N
1617146935.9,286047001.1,N
1617146955.7,286047000.4,N
1617146975.6,286047000.5,N
1617146995.4,286047000.5,N
1617147015.2,286047000.8,N
1617147035.1,286047000.8,N
1617147036.0,286047000.8,N
1617147055.8,286047001.0,N
1617147075.7,286046998.6,N
1617147095.5,286046998.2,N
1617147115.3,286047000.5,N
1617147135.2,286047000.1,N
1617147155.0,286047000.1,N
1617147155.9,286047000.1,N
1617147175.8,286046999.7,N
1617147195.6,286047000.1,N
1617147215.4,286046999.9,N
1617147235.3,286047002.4,N
1617147255.1,286047002.3,N
1617147275.9,286047011.9,Y
1617147295.7,286047000.2,P
1617147315.5,286047002.4,P
1617147335.4,286046999.7,N
1617147355.2,286046999.7,N
1617147375.0,286046999.8,N
1617147375.9,286046999.8,N
1617147395.8,286047002.2,N
1617147415.6,286047000.2,N
1617147435.5,286046999.8,N
1617147455.3,286047002.4,N
1617147475.1,286047000.2,N
1617147495.9,286047002.7,N
1617147515.7,286047002.8,N
1617147535.5,286047002.3,N
1617147555.4,286047002.0,N
1617147575.2,286047001.9,N
1617147595.1,286047002.4,N
1617147596.0,286047002.4,N
1617147615.8,286046999.8,N
1617147635.6,286047000.1,N
1617147655.5,286046999.9,N
1617147675.3,286047000.0,N
1617147695.1,286046999.9,N
1617147715.9,286047000.3,N
1617147735.7,286047000.3,N
1617147755.6,286047000.7,N
1617147775.4,286047000.0,N
1617147795.2,286047000.7,N
1617147815.1,286046998.5,N
1617147816.0,286046998.5,N
1617147835.8,286047000.7,N
1617147855.7,286047000.7,N
1617147875.5,286046998.1,N
1617147895.3,286046998.1,N
1617147915.2,286047000.8,N
1617147935.9,286046998.4,N
1617147955.7,286047000.7,N
1617147975.6,286047001.0,N
1617147995.4,286047000.0,N
1617148015.3,286047000.8,N
1617148035.1,286046998.6,N
1617148036.0,286046998.6,N
1617148055.8,286047001.2,N
1617148075.7,286046998.2,N
1617148095.5,286047000.9,N
1617148115.3,286047000.5,N
1617148135.2,286047000.4,N
1617148155.0,286047000.2,N
1617148155.9,286047000.2,N
1617148175.8,286047000.5,N
1617148195.6,286047000.8,N
1617148215.4,286047001.1,N
1617148235.3,286046998.4,N
1617148255.1,286046998.7,N
1617148275.9,286046998.3,N
1617148295.7,286046998.6,N
1617148315.5,286047000.8,N
1617148335.4,286046998.5,N
1617148355.2,286047001.1,N
1617148375.0,286047001.2,N
1617148375.9,286047001.2,N
1617148395.8,286046998.4,N
1617148415.6,286046998.1,N
1617148435.5,286046999.0,N
1617148455.3,286046999.0,N
1617148475.1,286046998.9,N
1617148495.9,286046998.4,N
1617148515.7,286046998.6,N
1617148535.5,286046999.1,N
1617148555.4,286046998.7,N
1617148575.2,286046999.4,N
1617148595.1,286046999.3,N
1617148596.0,286046999.3,N
1617148615.8,286046998.6,N
1617148635.6,286047001.1,N
1617148655.5,286047001.0,N
1617148675.3,286047000.9,N
1617148695.2,286047000.9,N
1617148715.9,286047000.4,N
1617148735.7,286046999.9,N
1617148755.6,286047000.2,N
1617148775.4,286046999.9,N
1617148795.2,286047000.4,N
